Location: Tr�vern
(48.0333°N, 4.6000°W)
Time: 16:59:08
(UTC+00:00)

Okean 3 - Pass Details

Date: 14 July 2020
Orbit: 576 x 601 km, 82.5° (Epoch: 13 August)

Event Time Altitude Azimuth Distance (km) Brightness Sun altitude
Rises 01:49:31 0° 355° (N) 2,806 8.1 -17.8°
Reaches altitude 10° 01:51:47 10° 1° (N) 1,904 7.1 -17.6°
Maximum altitude 01:55:52 49° 76° (ENE) 756 4.2 -17.4°
Enters shadow 01:58:49 18° 147° (SSE) 1,473 5.2 -17.2°
